SCP
4 5 5 6 6 6 5 5 6 6 4 3 3 3 3 3 3 3 3 2 2 2 2 2 3 3 3 3 2 2 2 1 1 1 1 1 1 1 2 2 2 2 1
5 5 5 5 5 5 4 4 5 6 5 4 3 3 3 2 3 3 3 3 3 3 3 3 3 3 2 2 2 2 1 1 1 1 1 1 1 1 1 2 2 2 2
6 5 4 3 3 3 3 3 4 5 5 4 3 3 3 3 3 3 3 3 3 3 3 3 3 2 2 2 2 2 1 1 1 1 1 1 1 1 1 1 2 2 2
5 4 4 4 3 3 3 3 4 4 4 3 3 3 3 4 4 4 3 3 3 3 3 3 2 2 2 2 2 1 1 1 1 1 1 1 1 1 1 1 1 2 2
5 5 5 4 3 3 3 4 5 4 3 3 3 3 3 3 3 3 2 2 2 2 2 2 2 2 2 2 2 1 2 1 1 1 1 1 1 1 1 1 1 1 1
6 6 5 4 3 3 4 4 5 5 3 3 3 3 3 3 3 2 2 2 2 2 2 2 2 2 2 1 2 2 2 1 1 1 1 1 1 1 1 1 1 1 1
6 6 5 5 4 4 5 5 6 5 4 3 3 3 3 3 3 3 2 2 2 2 2 2 1 2 1 1 1 1 1 1 1 1 1 1 1 1 1 1 1 1 1
6 6 5 6 6 6 7 7 7 6 4 4 4 4 4 4 3 3 2 2 2 2 2 1 1 1 1 1 1 1 1 1 1 1 1 1 1 1 1 1 1 1 1
6 6 6 6 7 8 9 9 8 6 5 4 4 5 5 4 3 3 2 2 2 2 2 2 1 1 1 1 1 1 1 1 1 1 1 1 1 1 1 1 1 1 1
6 6 7 7 7 7 8 8 6 5 4 3 4 4 4 4 3 3 2 2 2 2 2 2 1 1 1 1 1 1 1 1 1 1 1 1 1 1 1 1 1 1 1
7 7 8 7 6 5 5 5 4 3 2 2 2 2 2 3 3 3 3 2 2 2 2 2 1 1 1 1 1 1 1 1 1 1 1 1 1 1 1 1 1 1 1
8 9 10 9 6 5 4 3 2 2 1 1 1 1 1 1 2 2 2 2 2 2 2 2 1 1 1 1 1 1 1 1 0 0 0 0 0 1 1 1 1 1 1
11 11 11 9 7 5 4 3 2 2 1 1 1 1 1 1 1 1 1 1 1 1 1 1 1 1 1 1 0 0 0 0 0 0 0 0 0 1 1 1 1 1 1
12 11 10 8 7 5 3 2 2 2 1 1 1 1 1 1 1 1 1 1 1 1 1 1 1 1 0 0 0 0 0 0 0 0 0 0 0 0 0 0 1 1 0
9 8 6 6 4 3 2 2 2 1 1 1 1 0 0 0 0 1 1 0 0 0 0 0 0 0 0 0 0 0 0 0 0 0 0 0 0 0 0 0 0 0 0
5 4 3 3 2 1 1 1 1 1 1 0 0 0 0 0 0 0 0 0 0 0 0 0 0 0 0 0 0 0 0 0 0 0 0 0 0 0 0 0 0 0 0
3 2 1 1 1 1 1 1 1 1 1 0 0 0 0 0 0 0 0 0 0 0 0 0 0 0 0 0 0 0 0 0 0 0 0 0 0 0 0 0 0 0 0
1 1 0 0 0 0 1 1 1 1 1 0 0 0 0 0 0 0 0 0 0 0 0 0 0 0 0 0 0 0 0 0 0 0 0 0 0 0 0 0 0 0 0
1 1 0 0 0 0 0 1 1 1 0 0 0 0 0 0 0 0 0 0 0 0 0 0 0 0 0 0 0 0 0 0 0 0 0 0 0 0 0 0 0 0 0
1 1 0 0 0 0 0 0 0 0 0 0 0 0 0 0 0 0 0 0 0 0 0 0 0 0 0 0 0 0 0 0 0 0 0 0 0 0 0 0 0 0 0
1 0 0 0 0 0 0 1 0 0 0 0 0 0 0 0 0 0 1 1 1 0 0 1 1 1 0 0 0 0 0 0 0 0 0 0 0 0 0 0 0 0 0
1 0 0 1 1 1 1 1 1 1 1 0 0 0 0 0 0 0 1 1 1 0 0 1 1 1 0 0 0 0 0 0 0 0 0 0 0 0 0 0 0 0 0
1 1 1 1 1 1 1 1 1 1 1 1 1 1 1 0 0 0 0 0 0 0 0 0 0 0 0 0 0 0 0 0 0 0 0 0 0 0 0 0 0 0 0
1 1 1 1 1 1 1 1 1 1 1 1 1 1 1 1 0 0 0 0 0 0 0 0 0 0 0 0 0 0 0 0 0 0 0 0 0 0 0 0 0 0 0
1 1 1 1 1 0 1 1 1 1 1 1 1 1 1 1 1 0 0 0 0 0 0 0 0 0 0 0 0 0 0 0 0 0 0 0 0 0 0 0 0 0 0
0 1 0 0 0 0 0 0 1 1 1 1 1 1 1 1 1 0 0 0 0 0 0 0 0 0 0 0 0 0 0 0 0 0 0 0 0 0 0 0 0 0 0
Wind_Speed
11 10 9 9 8 7 6 5 5 4 3 2 2 2 2 2 2 2 3 3 3 4 3 3 2 3 2 3 3 3 3 3 2 2 3 2 1 1 0 0 0 0 0
12 10 9 9 8 7 6 5 5 4 3 2 1 1 2 1 1 2 3 3 3 3 3 3 3 3 2 2 3 3 3 3 2 2 3 2 1 1 0 0 0 1 1
13 11 9 8 8 7 5 5 4 4 3 2 2 2 1 1 2 2 2 2 3 3 3 3 3 3 3 2 3 3 3 3 3 1 2 2 1 2 1 1 1 1 1
14 12 11 9 8 7 6 5 5 4 3 2 2 1 2 2 1 1 2 1 2 2 3 3 3 3 3 3 3 3 3 3 3 3 1 2 1 1 1 2 1 1 1
13 12 11 9 9 8 7 6 5 4 4 3 2 2 2 1 1 1 2 1 1 2 2 3 3 3 3 3 3 3 3 3 3 3 3 3 2 1 1 2 1 1 2
12 11 10 10 9 8 7 6 5 5 4 3 3 3 2 2 2 2 1 0 1 2 3 3 3 3 3 3 3 2 3 2 3 3 3 2 2 1 1 1 2 1 1
12 11 11 11 9 8 7 6 6 5 4 3 3 2 2 2 2 1 1 1 2 2 3 3 3 3 3 3 3 3 2 3 3 3 3 2 2 1 1 1 2 2 1
11 10 9 9 9 8 7 6 6 5 4 3 3 2 2 2 2 2 2 3 2 2 2 2 3 3 4 4 4 3 3 2 3 3 3 2 2 2 1 1 1 1 1
10 10 9 9 8 7 6 6 5 4 4 4 4 3 3 2 2 2 3 2 2 2 3 3 3 3 4 4 4 2 3 3 3 3 3 2 2 2 1 1 1 2 2
10 10 9 9 7 7 6 6 5 4 4 4 2 3 3 3 3 3 3 3 3 3 3 3 3 3 3 3 3 3 3 3 3 2 3 3 2 2 2 1 1 1 1
11 10 9 8 7 7 6 5 5 4 3 4 4 4 4 4 3 3 3 3 3 3 3 3 3 3 3 3 3 3 3 3 3 4 3 3 3 2 2 2 1 1 0
10 10 9 8 7 6 5 5 5 4 3 4 4 4 3 3 3 3 3 3 3 3 3 3 4 4 4 3 3 4 4 4 4 4 4 4 3 3 2 2 2 1 0
10 9 9 7 7 6 5 5 4 4 3 4 4 3 2 2 3 2 2 3 3 3 4 3 4 4 4 4 4 4 4 4 4 4 4 4 4 3 2 2 1 1 1
10 9 8 7 6 6 5 5 4 3 3 3 3 2 2 2 2 2 2 3 3 3 3 4 4 4 5 6 6 5 4 4 4 4 4 4 4 4 4 2 2 1 1
10 9 8 7 7 6 5 5 4 4 3 3 3 3 1 2 2 2 3 3 3 4 3 4 4 4 4 6 8 7 5 4 4 3 3 4 4 5 4 2 2 1 0
10 9 8 8 7 6 6 5 4 4 3 2 2 2 2 2 2 2 3 3 3 4 4 4 4 5 5 7 8 7 5 4 4 4 3 2 3 3 4 3 2 1 0
9 9 8 7 7 6 6 5 4 4 3 2 2 2 2 2 2 3 3 3 3 3 3 4 4 4 5 7 8 9 5 4 3 3 4 4 5 5 3 1 1 2 1
9 9 8 8 7 6 6 5 4 4 3 3 2 2 2 3 3 3 3 3 2 2 2 2 2 3 4 6 8 10 4 3 3 3 4 4 4 6 5 3 2 2 1
10 9 8 8 7 7 6 5 4 4 3 3 2 2 2 2 2 3 2 2 1 1 1 1 2 2 3 5 7 8 3 2 2 3 4 4 4 6 6 2 2 2 1
10 9 8 8 7 6 6 5 4 4 3 3 2 2 2 1 2 2 1 1 1 1 2 2 2 2 3 4 6 7 3 2 1 1 2 5 5 6 6 2 2 1 1
11 9 8 7 7 6 6 5 4 3 3 3 2 2 1 1 2 1 0 1 1 1 1 1 1 1 1 1 3 5 3 4 3 2 2 2 5 5 5 3 1 1 2
11 9 8 7 6 6 6 5 4 3 3 2 2 2 1 1 2 1 1 1 1 2 1 1 1 1 1 1 2 3 4 4 3 3 2 2 4 5 5 3 2 3 3
9 8 8 8 6 6 6 5 4 4 3 3 2 2 1 1 1 1 2 2 2 2 1 1 1 1 1 1 2 3 5 4 2 2 4 5 5 5 4 4 4 3 2
8 7 8 7 6 6 5 5 4 4 3 3 2 2 2 2 1 1 2 1 1 2 2 2 1 1 1 1 1 2 2 3 3 3 4 6 7 6 5 4 4 3 2
7 7 7 7 7 6 5 5 4 4 3 3 2 2 2 2 1 1 1 1 2 1 1 2 3 3 2 2 3 3 3 3 4 5 3 3 3 3 3 3 3 2 2
7 7 7 7 7 7 6 5 5 4 3 2 2 2 2 2 3 3 2 1 2 3 2 2 1 1 1 2 3 4 5 5 5 4 4 4 3 3 2 2 1 1 1
Wind_Direction
142 136 133 128 121 112 104 98 93 88 92 99 103 99 86 75 74 86 68 40 19 6 354 7 358 357 2 2 351 338 327 317 319 307 302 289 253 222 186 277 303 311 32
139 139 138 131 124 120 115 108 101 94 87 90 100 115 112 104 95 70 65 39 25 8 9 12 356 5 351 10 358 344 334 325 332 307 299 292 319 18 357 90 5 345 26
148 145 148 135 131 126 119 111 101 91 83 83 90 97 112 108 88 90 85 43 31 19 8 6 4 356 351 12 347 352 338 325 318 313 302 307 332 348 344 13 52 49 38
153 154 152 144 138 130 122 109 104 93 83 81 80 91 96 89 78 66 80 50 51 31 14 4 4 353 349 356 349 8 330 327 326 329 310 296 301 277 313 344 10 32 43
153 150 147 141 133 125 119 110 101 94 81 70 68 54 60 71 77 77 86 76 88 52 30 13 0 345 348 0 350 342 335 335 335 330 332 327 312 252 245 283 321 4 20
144 142 139 134 129 125 119 113 103 96 85 73 68 67 63 65 61 53 72 37 86 48 28 24 2 349 356 353 338 331 333 344 335 330 329 322 318 325 307 281 298 318 339
133 134 138 137 130 124 116 109 110 101 93 83 69 61 47 76 70 18 45 24 48 50 23 15 357 352 349 341 342 332 338 340 334 328 324 324 311 299 287 271 285 302 312
131 131 127 125 127 121 113 107 104 99 94 91 77 56 39 46 55 27 17 28 27 33 25 13 359 352 347 349 347 340 340 345 330 330 330 319 309 300 269 255 266 288 292
131 131 125 118 117 115 111 109 105 101 91 82 83 71 59 52 46 31 28 32 21 16 17 10 2 354 352 349 342 345 348 348 345 338 335 328 323 321 295 260 231 239 259
131 127 123 120 117 115 111 112 111 107 98 92 79 79 65 52 46 51 43 31 18 11 3 5 2 353 352 351 352 347 359 2 353 349 352 347 336 329 323 308 280 251 235
132 127 124 122 121 120 122 127 119 110 95 85 71 64 54 44 33 40 34 23 10 356 2 8 4 359 4 358 354 352 5 9 4 0 0 358 350 339 333 325 310 284 196
130 130 129 130 128 128 129 127 120 111 101 96 86 70 54 44 34 32 20 9 5 1 8 11 8 7 7 356 359 359 9 8 9 7 4 1 356 359 353 350 355 339 341
132 132 134 135 135 136 132 125 123 116 109 106 103 92 69 51 42 34 16 12 11 6 11 12 11 7 5 9 7 6 11 11 12 12 10 4 2 359 356 359 358 357 46
138 138 135 137 141 139 134 128 123 116 112 108 105 88 61 50 41 32 23 19 16 11 14 11 16 15 17 16 6 360 4 9 13 13 12 9 9 1 354 7 11 30 69
144 145 142 142 141 134 129 124 118 109 105 105 102 95 76 60 55 40 34 29 19 19 24 18 19 16 31 22 9 351 1 6 7 12 22 25 27 22 12 11 2 4 36
146 144 143 142 138 134 130 125 119 121 127 116 106 104 85 71 62 50 46 41 28 21 22 25 30 28 30 16 11 359 348 352 358 6 8 12 28 29 29 33 29 27 81
146 146 146 141 138 137 132 131 135 137 129 110 96 93 92 85 56 47 46 37 29 28 33 35 35 40 35 14 4 355 339 342 357 5 0 11 21 13 3 14 57 55 85
146 143 142 137 136 135 134 133 135 135 133 124 109 96 93 84 71 58 45 31 25 23 32 34 40 41 33 10 359 345 336 346 11 15 9 14 15 8 357 9 54 66 51
138 138 142 143 141 141 141 141 139 138 133 117 103 83 68 71 71 67 47 30 10 355 12 37 50 44 38 10 358 347 323 345 18 25 27 15 14 3 7 21 51 61 58
132 136 143 143 139 141 142 143 142 140 129 115 101 102 101 78 74 81 44 23 343 340 360 38 36 35 42 20 4 353 337 337 348 31 63 38 15 10 15 17 24 39 353
134 140 143 140 139 142 142 146 149 142 130 127 116 113 115 138 124 111 55 295 319 348 344 9 19 36 47 39 6 4 352 332 335 5 32 29 8 8 7 11 14 325 305
140 142 139 135 140 148 151 154 148 136 131 129 123 116 138 237 117 130 216 238 251 251 249 278 253 182 139 358 334 336 335 334 346 352 6 17 354 349 343 341 316 309 310
140 143 143 142 149 156 159 154 148 143 138 139 136 145 160 138 121 198 230 236 240 259 244 229 229 164 152 188 290 299 310 319 320 320 319 314 309 310 300 269 272 281 268
144 148 148 150 153 155 153 149 145 143 140 146 154 176 178 192 195 238 249 254 307 337 348 5 8 21 82 54 4 306 299 303 298 296 288 282 278 276 278 278 262 243 230
151 155 155 153 154 154 151 151 149 147 145 158 182 193 200 202 199 222 315 355 48 47 336 346 347 1 28 11 358 349 353 346 353 327 296 274 268 258 243 239 230 221 209
156 158 159 158 157 158 157 158 157 157 163 179 200 208 204 201 209 198 183 193 211 192 202 231 264 323 248 260 305 327 324 320 332 325 296 291 276 267 257 248 234 223 215